Weather History for Faith, SD

Change the Weather History Date:

Monday, February 18, 2013

  Actual Average Record
Temperature  
Mean Temperature 20 °F 24 °F  
Max Temperature 33 °F 34 °F 48 °F (2002)
Min Temperature 7 °F 15 °F -13 °F (2006)
Degree Days  
Heating Degree Days 45 41  
Month to date heating degree days 611 768  
Since 1 July heating degree days 4927 5297  
Cooling Degree Days 0 0  
Month to date cooling degree days 0 0  
Year to date cooling degree days 0 0  
Moisture  
Dew Point 12 °F    
Average Humidity 67    
Maximum Humidity 83    
Minimum Humidity 50    
Precipitation  
Precipitation 0.00 in 0.02 in 0.02 in (1999)
Month to date precipitation 0.07 0.31  
Year to date precipitation 0.45 0.51  
Sea Level Pressure  
Sea Level Pressure 30.07 in    
Wind  
Wind Speed 23 mph (NNW)    
Max Wind Speed 39 mph    
Max Gust Speed 51 mph    
T = Trace of Precipitation, MM = Missing Value Source: NWS Daily Summary

Daily Weather History Graph

Daily Weather History Graph

Search for Another Location

Airport:

Trip Planner

Search our weather history database for the weather conditions in past years. The results will help you decide how hot, cold, wet, or windy it might be!

Date:

Astronomy

Feb. 18, 2013 Rise Set
Actual Time 6:43 AM MST 5:20 PM MST
Civil Twilight 6:13 AM MST 5:50 PM MST
Nautical Twilight 5:39 AM MST 6:25 PM MST
Astronomical Twilight 5:05 AM MST 6:59 PM MST
Moon 11:00 AM MST (2/18) 1:32 AM MST (2/18)
Length of Visible Light 11h 36m
Length of Day
10h 36m
First Quarter, 59% of the Moon is Illuminated
Feb 18
First Quarter
Feb 25
Full
Mar 4
Last Quarter
Mar 11
New
Mar 19
First Quarter

Hourly Weather History & Observations

Time (MST) Temp. Windchill Dew Point Humidity Pressure Visibility Wind Dir Wind Speed Gust Speed Precip Events Conditions
12:56 AM 32.0 °F 17.2 °F 26.1 °F 79% 29.74 in - NW 32.2 mph 40.3 mph N/A   Unknown
1:56 AM 28.0 °F 12.8 °F 21.9 °F 78% 29.80 in - NW 27.6 mph 43.7 mph N/A   Unknown
2:56 AM 24.1 °F 6.4 °F 17.1 °F 75% 29.84 in - NW 32.2 mph 44.9 mph N/A   Unknown
3:56 AM 23.0 °F 4.9 °F 15.1 °F 72% 29.89 in - NNW 32.2 mph 44.9 mph N/A   Unknown
4:56 AM 19.9 °F 1.8 °F 12.9 °F 74% 29.93 in - NNW 27.6 mph 34.5 mph N/A   Unknown
5:56 AM 19.0 °F 1.3 °F 12.9 °F 77% 29.96 in - NNW 25.3 mph 34.5 mph N/A   Unknown
6:56 AM 19.0 °F 3.2 °F 12.9 °F 77% 30.01 in - NW 19.6 mph 31.1 mph N/A   Unknown
7:56 AM 19.0 °F 1.6 °F 12.0 °F 74% 30.04 in - NNW 24.2 mph 31.1 mph N/A   Unknown
8:56 AM 19.9 °F 1.5 °F 10.0 °F 65% 30.05 in - NNW 28.8 mph 35.7 mph N/A   Unknown
9:56 AM 23.0 °F 6.6 °F 10.9 °F 60% 30.06 in - NNW 25.3 mph 32.2 mph N/A   Unknown
10:56 AM 25.0 °F 9.9 °F 10.9 °F 55% 30.07 in - NW 23.0 mph 31.1 mph N/A   Unknown
11:56 AM 26.1 °F 10.1 °F 10.9 °F 53% 30.07 in - NNW 27.6 mph 31.1 mph N/A   Unknown
12:56 PM 28.0 °F 13.9 °F 12.0 °F 51% 30.06 in - NNW 23.0 mph 33.4 mph N/A   Unknown
1:56 PM 25.0 °F 9.5 °F 10.9 °F 55% 30.09 in - NNW 24.2 mph 32.2 mph N/A   Unknown
2:56 PM 24.1 °F 7.7 °F 10.9 °F 57% 30.12 in - NW 26.5 mph 35.7 mph N/A   Unknown
3:56 PM 24.1 °F 7.4 °F 10.0 °F 55% 30.14 in - NNW 27.6 mph 33.4 mph N/A   Unknown
4:56 PM 21.9 °F 5.8 °F 8.1 °F 55% 30.17 in - NW 23.0 mph 29.9 mph N/A   Unknown
5:56 PM 21.0 °F 5.0 °F 9.0 °F 60% 30.20 in - NW 21.9 mph 27.6 mph N/A   Unknown
6:56 PM 19.9 °F 3.5 °F 10.0 °F 65% 30.21 in - NNW 21.9 mph - N/A   Unknown
7:56 PM 15.1 °F -0.1 °F 8.1 °F 74% 30.24 in - NNW 15.0 mph - N/A   Unknown
8:56 PM 12.0 °F -4.0 °F 7.0 °F 80% 30.26 in - North 15.0 mph - N/A   Unknown
9:56 PM 10.0 °F -5.2 °F 6.1 °F 84% 30.29 in - North 12.7 mph - N/A   Unknown
10:56 PM 10.0 °F -4.5 °F 5.0 °F 80% 30.30 in - North 11.5 mph - N/A   Unknown